Location: Invercargill
(46.4000°S, 168.3500°E)
Time: 18:42:40
(UTC+12:00)

Cosmos 2360 Rocket - Pass Details

Date: 14 May 2021
Orbit: 835 x 844 km, 71.0° (Epoch: 14 June)

Event Time Altitude Azimuth Distance (km) Brightness Sun altitude
Rises 17:44:13 0° 326° (NW) 3,382 6.4 -3.8°
Reaches altitude 10° 17:46:40 10° 323° (NW) 2,455 5.7 -4.2°
Maximum altitude 17:52:16 65° 241° (WSW) 929 2.7 -5.1°
Drops below altitude 10° 17:57:57 10° 158° (SSE) 2,486 4.3 -6.0°
Sets 18:00:27 0° 155° (SSE) 3,427 4.9 -6.4°
